Regional Weather Roundup
Issued by NWS

Home | Current Version | Previous Version | Graphics & Text | Print | Product List | Glossary On
Versions: 1 2 3 4 5 6 7 8 9 10 11 12 13 14 15 16 17 18 19 20 21 22 23 24 25 26 27 28 29 30 31 32 33 34 35 36 37 38 39 40 41 42 43 44 45 46 47 48 49 50
712
ASUS44 KMEG 220500
RWRTN
TENNESSEE HOURLY STATE WEATHER ROUNDUP
NATIONAL WEATHER SERVICE MEMPHIS TN
1100 PM CST SAT JAN 21 2017

TNZ002-004-019-021-049-052-054-088>092-220600-
WEST TENNESSEE

CITY           SKY/WX    TMP DP  RH WIND       PRES   REMARKS
MEMPHIS INTL   MOCLDY    62  54  74 E8        29.45F
NWS MEMPHIS      N/A     60 N/A N/A MISG        N/A
JACKSON        MOCLDY    57  53  86 E6        29.49F
DYERSBURG      CLOUDY    57  50  77 E6        29.49F
UNION CITY     CLEAR     57  52  82 CALM      29.50F
PARIS          CLEAR     54  48  82 CALM      29.53F
$$

TNZ008-025-027-028-033-062-065-066-220600-
NORTH MIDDLE TENNESSEE

CITY           SKY/WX    TMP DP  RH WIND       PRES   REMARKS
NASHVILLE      MOCLDY    55  49  80 E5        29.59F
CLARKSVILLE    CLOUDY    54  47  77 E5        29.57F
SMYRNA         PTCLDY    54  50  86 E6        29.59F
CROSSVILLE     CLOUDY    47  45  93 SE3       29.66F
$$

TNZ061-075-076-078-094-096-097-220600-
SOUTH MIDDLE TENNESSEE

CITY           SKY/WX    TMP DP  RH WIND       PRES   REMARKS
TULLAHOMA      CLEAR     52  50  93 E5        29.60F
WINCHESTER     CLEAR     52  50  93 E7        29.60F
MCMINNVILLE    CLEAR     48  48 100 NE3       29.61F
COLUMBIA       CLEAR    N/A N/A N/A S3        29.55F
SHELBYVILLE    CLEAR     54  52  94 E5        29.59F
$$

TNZ017-018-042-046-047-220600-
NORTHEAST TENNESSEE

CITY           SKY/WX    TMP DP  RH WIND       PRES   REMARKS
TRI CITIES     MOCLDY    49  47  93 CALM      29.65F
$$

TNZ012-013-036-069-073-074-220600-
CENTRAL EAST TENNESSEE

CITY           SKY/WX    TMP DP  RH WIND       PRES   REMARKS
KNOXVILLE      CLOUDY    52  50  93 SE5       29.67R
OAK RIDGE      PTCLDY    50  48  93 CALM      29.68S
GATLINBURG     CLOUDY    45  45 100 SW3       29.68R VSB 1/2
$$

TNZ083-085-099-220600-
SOUTHEAST TENNESSEE

CITY           SKY/WX    TMP DP  RH WIND       PRES   REMARKS
CHATTANOOGA    MOCLDY    56  52  86 N3        29.63F
$$

SKY/WX REPORTED AS FAIR MEANS FEW OR NO CLOUDS BELOW
12 THOUSAND FEET.





USA.gov is the U.S. government's official web portal to all federal, state and local government web resources and services.